Weather History for Red Oak, IA

Change the Weather History Date:

Thursday, November 21, 2013

  Actual Average Record
Temperature  
Mean Temperature 30 °F -  
Max Temperature 37 °F 46 °F 93 °F (1997)
Min Temperature 23 °F 24 °F 4 °F (1964)
Degree Days  
Heating Degree Days 35    
Moisture  
Dew Point 28 °F    
Average Humidity 91    
Maximum Humidity 100    
Minimum Humidity 86    
Precipitation  
Precipitation 0.01 in - - ()
Sea Level Pressure  
Sea Level Pressure 30.22 in    
Wind  
Wind Speed 10 mph (North)    
Max Wind Speed 23 mph    
Max Gust Speed 31 mph    
Visibility 7 miles    
Events Rain , Snow    
Averages and records for this station are not official NWS values.
T = Trace of Precipitation, MM = Missing Value Source: NWS Daily Summary

Daily Weather History Graph

Daily Weather History Graph

Search for Another Location

Airport:

Trip Planner

Search our weather history database for the weather conditions in past years. The results will help you decide how hot, cold, wet, or windy it might be!

Date:

Astronomy

Nov. 21, 2013 Rise Set
Actual Time 7:15 AM CST 4:57 PM CST
Civil Twilight 6:45 AM CST 5:27 PM CST
Nautical Twilight 6:12 AM CST 6:01 PM CST
Astronomical Twilight 5:39 AM CST 6:34 PM CST
Moon 8:35 PM CST (11/21) 10:22 AM CST (11/21)
Length of Visible Light 10h 41m
Length of Day
9h 41m
Waning Gibbous, 85% of the Moon is Illuminated
Nov 21
Waning Gibbous
Nov 25
Last Quarter
Dec 2
New
Dec 9
First Quarter
Dec 17
Full

Hourly Weather History & Observations

Time (CST) Temp. Windchill Dew Point Humidity Pressure Visibility Wind Dir Wind Speed Gust Speed Precip Events Conditions
12:15 AM 37.4 °F 33.8 °F 33.8 °F 87% 29.96 in 10.0 mi SSE 4.6 mph - N/A   Clear
12:35 AM 37.4 °F - 35.6 °F 93% 29.96 in 10.0 mi Calm Calm - N/A   Clear
12:55 AM 37.4 °F - 35.6 °F 93% 29.96 in 10.0 mi Calm Calm - N/A   Clear
1:15 AM 37.4 °F - 35.6 °F 93% 29.97 in 10.0 mi Calm Calm - N/A   Clear
1:35 AM 37.4 °F - 33.8 °F 87% 29.97 in 10.0 mi Calm Calm - N/A   Clear
1:55 AM 35.6 °F - 33.8 °F 93% 29.98 in 10.0 mi Calm Calm - N/A   Clear
2:15 AM 33.8 °F - 32.0 °F 93% 29.99 in 9.0 mi Calm Calm - N/A   Clear
2:35 AM 32.0 °F - 32.0 °F 100% 30.00 in 10.0 mi Calm Calm - N/A   Clear
2:55 AM 33.8 °F - 32.0 °F 93% 30.01 in 10.0 mi Calm Calm - N/A   Clear
3:15 AM 35.6 °F 29.9 °F 33.8 °F 93% 30.02 in 10.0 mi North 6.9 mph - N/A   Clear
3:35 AM 33.8 °F - 32.0 °F 93% 30.03 in 9.0 mi Calm Calm - N/A   Partly Cloudy
3:55 AM 35.6 °F 29.9 °F 33.8 °F 93% 30.03 in 10.0 mi NNW 6.9 mph - N/A   Clear
4:15 AM 33.8 °F 29.6 °F 33.8 °F 100% 30.03 in 10.0 mi NNE 4.6 mph - N/A   Clear
4:35 AM 33.8 °F 28.6 °F 33.8 °F 100% 30.04 in 9.0 mi North 5.8 mph - N/A   Partly Cloudy
4:55 AM 33.8 °F 26.4 °F 33.8 °F 100% 30.04 in 9.0 mi North 9.2 mph - N/A   Scattered Clouds
5:15 AM 35.6 °F 27.5 °F 33.8 °F 93% 30.06 in 9.0 mi NNW 11.5 mph - N/A   Unknown
5:35 AM 35.6 °F 28.0 °F 33.8 °F 93% 30.06 in 10.0 mi North 10.4 mph - N/A   Unknown
5:55 AM 35.6 °F 27.1 °F 33.8 °F 93% 30.07 in 10.0 mi NNW 12.7 mph - N/A   Overcast
6:15 AM 37.4 °F 28.2 °F 33.8 °F 87% 30.10 in 10.0 mi NNW 16.1 mph 23.0 mph N/A   Overcast
6:35 AM 37.4 °F 28.2 °F 33.8 °F 87% 30.11 in 9.0 mi NNW 16.1 mph 21.9 mph N/A   Overcast
6:55 AM 37.4 °F 27.5 °F 33.8 °F 87% 30.12 in 9.0 mi NNW 18.4 mph 24.2 mph N/A   Overcast
7:15 AM 35.6 °F 25.9 °F 33.8 °F 93% 30.14 in 7.0 mi NNW 16.1 mph 25.3 mph N/A   Overcast
7:35 AM 35.6 °F 24.8 °F 33.8 °F 93% 30.14 in 4.0 mi North 19.6 mph 26.5 mph N/A   Overcast
7:55 AM 35.6 °F 25.2 °F 33.8 °F 93% 30.15 in 3.0 mi North 18.4 mph - N/A   Overcast
8:15 AM 35.6 °F 24.0 °F 33.8 °F 93% 30.15 in 6.0 mi North 23.0 mph - N/A   Overcast
8:35 AM 35.6 °F 25.5 °F 33.8 °F 93% 30.16 in 5.0 mi North 17.3 mph 25.3 mph N/A   Overcast
8:55 AM 33.8 °F 22.8 °F 33.8 °F 100% 30.18 in 3.0 mi North 18.4 mph 26.5 mph N/A   Overcast
9:15 AM 33.8 °F 21.9 °F 32.0 °F 93% 30.19 in 4.0 mi North 21.9 mph 31.1 mph N/A   Overcast
9:35 AM 33.8 °F 22.2 °F 32.0 °F 93% 30.20 in 7.0 mi North 20.7 mph 28.8 mph N/A   Overcast
9:55 AM 33.8 °F 21.6 °F 32.0 °F 93% 30.20 in 5.0 mi North 23.0 mph 29.9 mph N/A   Overcast
10:55 AM 32.0 °F 20.1 °F 30.2 °F 93% 30.24 in 5.0 mi North 19.6 mph 25.3 mph N/A   Overcast
11:35 AM 30.2 °F 17.4 °F 28.4 °F 93% 30.24 in 5.0 mi North 20.7 mph 29.9 mph N/A Rain Light Freezing Rain
11:55 AM 30.2 °F 17.1 °F 28.4 °F 93% 30.24 in 5.0 mi North 21.9 mph - N/A Rain Light Freezing Rain
12:15 PM 30.2 °F 18.5 °F 28.4 °F 93% 30.24 in 6.0 mi North 17.3 mph 24.2 mph N/A Rain Light Freezing Rain
12:35 PM 30.2 °F 17.4 °F 28.4 °F 93% 30.25 in 5.0 mi North 20.7 mph - N/A Rain Light Freezing Rain
12:55 PM 30.2 °F 17.8 °F 28.4 °F 93% 30.25 in 5.0 mi North 19.6 mph 26.5 mph 0.01 in Snow Light Snow
1:15 PM 30.2 °F 18.1 °F 26.6 °F 86% 30.25 in 4.0 mi North 18.4 mph 27.6 mph N/A Snow Light Snow
1:35 PM 28.4 °F 15.1 °F 26.6 °F 93% 30.25 in 4.0 mi North 20.7 mph 28.8 mph N/A Snow Light Snow
1:55 PM 28.4 °F 17.0 °F 26.6 °F 93% 30.26 in 5.0 mi North 15.0 mph 26.5 mph N/A Rain Light Freezing Rain
2:15 PM 28.4 °F 16.2 °F 26.6 °F 93% 30.26 in 6.0 mi North 17.3 mph 24.2 mph N/A Rain Light Freezing Rain
2:35 PM 28.4 °F 14.7 °F 24.8 °F 86% 30.26 in 7.0 mi North 21.9 mph - N/A Rain Light Freezing Rain
2:55 PM 28.4 °F 15.8 °F 24.8 °F 86% 30.27 in 9.0 mi North 18.4 mph 27.6 mph N/A Rain Light Freezing Rain
3:15 PM 28.4 °F 17.0 °F 24.8 °F 86% 30.28 in 10.0 mi North 15.0 mph 25.3 mph N/A Rain Light Freezing Rain
3:35 PM 26.6 °F 12.0 °F 23.0 °F 86% 30.28 in 10.0 mi North 23.0 mph 28.8 mph N/A Rain Light Freezing Rain
3:55 PM 26.6 °F 13.8 °F 23.0 °F 86% 30.29 in 10.0 mi North 17.3 mph 26.5 mph N/A   Light Freezing Rain
4:15 PM 26.6 °F 13.4 °F 23.0 °F 86% 30.31 in 10.0 mi North 18.4 mph 26.5 mph N/A   Overcast
4:35 PM 26.6 °F 13.1 °F 23.0 °F 86% 30.32 in 10.0 mi North 19.6 mph - N/A Rain Light Freezing Rain
4:55 PM 26.6 °F 13.8 °F 23.0 °F 86% 30.33 in 10.0 mi North 17.3 mph 27.6 mph N/A Rain Light Freezing Rain
5:15 PM 26.6 °F 13.1 °F 23.0 °F 86% 30.33 in 10.0 mi North 19.6 mph 27.6 mph N/A Rain Light Freezing Rain
6:35 PM 26.6 °F 13.4 °F 23.0 °F 86% 30.39 in 9.0 mi North 18.4 mph 24.2 mph N/A Snow Light Snow
6:55 PM 26.6 °F 13.1 °F 23.0 °F 86% 30.39 in 7.0 mi North 19.6 mph 27.6 mph N/A Snow Light Snow
7:15 PM 26.6 °F 14.7 °F 23.0 °F 86% 30.39 in 10.0 mi North 15.0 mph 25.3 mph N/A   Unknown
7:35 PM 26.6 °F 14.3 °F 23.0 °F 86% 30.40 in 10.0 mi North 16.1 mph 23.0 mph N/A Rain Light Freezing Rain
7:55 PM 26.6 °F 13.8 °F 23.0 °F 86% 30.40 in 10.0 mi North 17.3 mph 24.2 mph N/A Rain Light Freezing Rain
8:15 PM 24.8 °F 11.1 °F 21.2 °F 86% 30.42 in 10.0 mi North 18.4 mph 27.6 mph N/A Rain Light Freezing Rain
8:35 PM 24.8 °F 12.4 °F 21.2 °F 86% 30.44 in 8.0 mi North 15.0 mph 23.0 mph N/A Rain Light Freezing Rain
8:55 PM 24.8 °F 13.4 °F 23.0 °F 93% 30.45 in 4.0 mi NNW 12.7 mph 19.6 mph N/A   Overcast
9:15 PM 24.8 °F 11.9 °F 23.0 °F 93% 30.45 in 1.5 mi North 16.1 mph 24.2 mph N/A   Overcast
9:35 PM 24.8 °F 12.4 °F 23.0 °F 93% 30.45 in 1.2 mi North 15.0 mph 25.3 mph N/A   Overcast
9:55 PM 24.8 °F 12.4 °F 21.2 °F 86% 30.47 in 2.5 mi North 15.0 mph 23.0 mph N/A Snow Light Snow
10:15 PM 24.8 °F 13.4 °F 21.2 °F 86% 30.47 in 3.0 mi NNW 12.7 mph 19.6 mph N/A Snow Light Snow
10:35 PM 23.0 °F 10.6 °F 21.2 °F 93% 30.48 in 2.0 mi NNW 13.8 mph 20.7 mph N/A Snow Light Snow
10:55 PM 23.0 °F 8.3 °F 21.2 °F 93% 30.49 in 3.0 mi North 19.6 mph - N/A Snow Light Snow
11:15 PM 23.0 °F 10.6 °F 21.2 °F 93% 30.50 in 2.0 mi NNW 13.8 mph 20.7 mph N/A Snow Light Snow
11:35 PM 23.0 °F 10.1 °F 21.2 °F 93% 30.50 in 2.0 mi North 15.0 mph 23.0 mph N/A Snow Light Snow
11:55 PM 23.0 °F 11.7 °F 21.2 °F 93% 30.52 in 4.0 mi NNW 11.5 mph 20.7 mph N/A Snow Light Snow